Total_Precipitation_Accumulation
2.45 2.52 2.51 2.45 2.26 2.60 3.04 3.30 3.00 3.28 3.28 2.86 2.54 2.42 2.39 2.34 2.53 2.73 2.57 2.70 2.65 2.64 2.94 3.06 2.89 2.64 2.43 2.07 1.81 1.57 1.34 1.25 1.14 0.93 0.78 0.76 0.72 0.66 0.63 0.60 0.58 0.54 0.51
3.02 3.06 2.90 2.80 2.48 2.48 2.78 3.03 3.06 3.43 3.27 3.08 2.46 2.40 2.35 2.47 2.65 2.67 2.63 3.09 3.05 2.80 2.84 3.09 3.23 3.12 2.92 2.73 2.37 2.02 1.74 1.58 1.44 1.14 0.90 0.83 0.80 0.75 0.71 0.72 0.77 0.70 0.57
3.52 3.38 3.17 2.81 2.62 2.65 2.83 2.79 2.84 2.96 2.86 2.77 2.51 2.56 2.53 2.48 2.43 2.49 2.62 2.80 2.70 2.51 2.57 2.76 3.12 3.37 3.52 3.53 3.27 2.99 2.45 1.96 1.72 1.42 1.11 0.92 0.82 0.76 0.75 0.76 0.83 0.80 0.67
3.34 3.34 3.04 2.65 2.69 2.72 2.75 2.82 2.69 2.76 2.79 2.81 2.76 2.54 2.60 2.57 2.20 2.23 2.34 2.32 2.41 2.19 2.34 2.54 2.74 3.01 3.59 4.14 4.41 4.32 3.61 2.70 2.15 1.82 1.54 1.24 1.03 0.89 0.80 0.79 0.88 0.88 0.71
3.16 3.30 3.01 2.86 2.80 2.76 2.62 2.39 2.76 2.93 2.94 2.93 2.61 2.48 2.26 2.08 1.91 1.75 1.76 1.64 1.83 2.02 2.23 2.33 2.56 2.71 3.32 4.23 5.03 5.31 4.88 3.87 3.06 2.51 2.22 1.88 1.59 1.31 1.07 0.99 0.96 0.89 0.80
2.86 3.06 2.79 2.71 2.82 2.89 2.70 2.67 2.94 3.00 2.73 2.78 2.42 2.31 2.12 1.76 1.67 1.60 1.47 1.45 1.45 1.42 1.76 2.21 2.62 2.39 2.78 3.56 4.31 4.94 5.36 5.01 4.13 3.46 2.94 2.52 2.22 1.90 1.51 1.34 1.23 1.15 1.06
2.50 2.85 2.59 2.85 2.73 2.63 2.46 2.41 2.53 2.58 2.33 2.55 2.77 2.30 1.80 1.54 1.48 1.39 1.38 1.44 1.38 1.46 1.78 2.23 2.52 2.68 2.54 2.53 2.94 3.56 4.60 5.06 4.75 4.13 3.60 3.16 2.79 2.49 2.02 1.71 1.52 1.33 1.25
2.59 2.44 2.61 2.43 2.39 2.47 2.29 2.18 2.38 2.37 2.14 2.48 2.60 2.56 1.99 1.77 1.53 1.12 1.25 1.37 1.46 1.66 1.73 1.89 2.28 2.60 2.52 2.80 2.37 2.28 3.25 4.18 4.80 4.75 4.19 3.56 3.06 2.63 2.25 2.02 1.75 1.43 1.27
2.76 2.64 2.52 2.33 2.26 2.09 2.17 2.21 2.28 2.32 2.24 2.24 2.29 2.49 2.13 1.76 1.49 1.17 1.18 1.40 1.70 1.90 1.88 1.96 1.99 2.20 2.27 2.57 2.55 2.36 2.33 2.81 3.71 4.64 4.72 4.07 3.27 2.61 2.22 2.18 2.09 1.78 1.53
2.91 2.64 2.47 2.25 2.08 1.95 2.13 1.87 1.97 2.26 2.36 2.10 2.11 2.08 2.00 2.06 1.99 1.62 1.31 1.24 1.50 1.71 1.81 1.72 1.77 1.92 2.12 2.41 2.54 2.59 2.35 2.29 2.76 3.72 4.36 4.34 3.81 3.13 2.66 2.60 2.82 2.71 2.22
2.66 2.37 2.25 2.18 2.04 1.91 1.91 1.87 2.14 2.15 2.12 2.07 2.13 2.12 2.21 2.34 2.16 2.00 1.68 1.59 1.70 1.70 1.65 1.62 1.67 1.80 2.02 2.31 2.61 2.65 2.87 2.57 2.41 2.63 3.11 3.51 3.70 3.48 3.14 3.21 3.71 3.98 3.61
2.32 2.16 2.08 2.13 1.99 1.86 1.86 1.86 2.00 2.06 2.16 2.25 2.26 2.23 2.29 2.26 2.28 2.47 2.15 1.94 1.89 1.68 1.65 1.67 1.76 1.88 2.01 2.22 2.27 2.48 2.64 2.71 2.58 2.49 2.56 2.72 2.99 3.23 3.38 3.60 4.03 4.44 4.64
1.88 1.88 1.95 2.04 1.88 1.82 1.89 2.04 2.03 2.00 2.15 2.25 2.18 2.25 2.33 2.27 2.39 2.58 2.51 2.18 2.00 1.80 1.85 1.85 1.82 2.02 2.05 2.32 2.57 2.52 2.26 2.33 2.27 2.23 2.22 2.25 2.31 2.59 2.89 3.13 3.59 4.09 4.53
1.67 1.73 1.92 1.98 1.90 1.83 1.81 2.14 2.13 2.14 2.22 2.21 2.11 2.39 2.45 2.25 2.45 2.67 2.78 2.78 2.48 2.32 2.37 2.36 2.10 2.06 2.16 2.30 2.54 2.41 2.18 2.17 1.87 1.79 1.78 1.82 1.87 1.98 2.16 2.40 2.69 2.99 3.28
1.73 1.81 1.88 2.05 2.13 2.19 2.21 2.34 2.27 2.27 2.44 2.42 2.37 2.53 2.53 2.40 2.43 2.55 2.80 3.01 3.02 2.83 2.72 2.64 2.36 2.23 2.18 2.15 2.29 2.18 2.25 2.15 1.72 1.47 1.41 1.42 1.41 1.44 1.50 1.66 1.88 2.13 2.30
1.85 1.88 1.90 1.97 2.09 2.20 2.26 2.41 2.39 2.45 2.64 2.65 2.70 2.77 2.65 2.42 2.52 2.58 2.73 3.00 3.25 3.27 3.02 2.65 2.43 2.31 2.30 2.04 2.09 1.89 1.92 1.83 1.51 1.36 1.27 1.22 1.20 1.21 1.22 1.28 1.40 1.63 1.81
1.82 1.87 1.88 1.86 1.85 1.99 2.20 2.41 2.38 2.54 2.66 2.72 2.71 2.62 2.50 2.55 2.70 2.64 2.76 2.91 3.13 3.34 3.10 2.77 2.64 2.58 2.56 2.36 2.19 1.90 1.66 1.52 1.40 1.46 1.31 1.19 1.15 1.15 1.20 1.26 1.32 1.43 1.57
1.89 1.85 1.84 1.81 1.78 1.88 2.15 2.33 2.45 2.69 2.82 2.74 2.66 2.60 2.48 2.59 2.69 2.67 2.73 2.74 2.80 3.07 3.00 2.80 2.75 2.78 2.66 2.43 2.30 2.10 1.75 1.55 1.55 1.65 1.50 1.34 1.25 1.23 1.20 1.21 1.30 1.39 1.48
1.81 1.77 1.79 1.86 1.98 2.10 2.30 2.43 2.53 2.71 2.67 2.57 2.59 2.51 2.40 2.46 2.42 2.49 2.53 2.51 2.50 2.61 2.78 2.70 2.61 2.69 2.60 2.40 2.31 2.14 2.01 2.09 1.91 1.76 1.61 1.46 1.35 1.30 1.28 1.22 1.25 1.35 1.46
1.56 1.63 1.83 2.07 2.23 2.36 2.44 2.49 2.49 2.47 2.46 2.37 2.28 2.20 2.21 2.31 2.37 2.37 2.30 2.29 2.35 2.49 2.59 2.61 2.59 2.67 2.68 2.64 2.49 2.36 2.37 2.32 2.16 1.73 1.61 1.43 1.33 1.23 1.17 1.11 1.13 1.30 1.45
1.55 1.77 1.94 2.05 2.09 2.15 2.23 2.34 2.34 2.28 2.24 2.15 2.04 1.86 1.89 2.18 2.31 2.28 2.12 2.19 2.27 2.38 2.47 2.58 2.62 2.71 2.77 2.91 2.67 2.41 2.32 2.38 2.26 2.03 1.85 1.61 1.46 1.34 1.30 1.26 1.22 1.23 1.28
1.74 1.92 1.93 1.91 1.88 1.64 1.74 1.86 1.89 1.91 1.91 1.88 1.78 1.71 1.73 1.82 1.84 1.89 1.89 1.89 1.94 2.02 2.23 2.49 2.60 2.59 2.57 2.66 2.72 2.59 2.49 2.44 2.41 2.32 2.34 2.23 1.90 1.80 1.68 1.54 1.43 1.19 1.07
1.93 2.04 2.00 1.94 1.83 1.75 1.66 1.54 1.52 1.56 1.69 1.72 1.74 1.79 1.57 1.43 1.55 1.58 1.71 1.70 1.63 1.70 1.81 2.07 2.28 2.30 2.37 2.37 2.60 2.62 2.66 2.73 2.70 2.65 2.64 2.69 2.35 2.05 1.81 1.72 1.62 1.28 1.12
2.17 2.19 2.14 2.04 1.97 1.91 1.81 1.60 1.54 1.50 1.62 1.66 1.65 1.68 1.64 1.55 1.52 1.62 1.69 1.64 1.51 1.46 1.43 1.41 1.64 1.92 2.12 2.33 2.37 2.44 2.57 2.66 2.67 2.52 2.47 2.57 2.41 2.25 1.93 1.64 1.52 1.32 1.13
2.29 2.28 2.31 2.21 2.14 2.17 2.01 1.65 1.49 1.44 1.60 1.64 1.64 1.59 1.55 1.51 1.55 1.43 1.41 1.44 1.43 1.40 1.25 1.24 1.32 1.53 1.72 1.77 1.96 2.22 2.45 2.44 2.40 2.20 2.01 2.12 2.19 2.18 2.12 1.87 1.49 1.35 1.15
2.39 2.40 2.34 2.31 2.21 2.18 2.07 1.58 1.34 1.33 1.52 1.57 1.63 1.60 1.50 1.37 1.34 1.22 1.22 1.37 1.35 1.33 1.34 1.27 1.18 1.20 1.29 1.44 1.52 1.59 1.90 2.10 2.02 1.98 1.73 1.63 1.63 1.72 1.87 1.70 1.43 1.32 1.28